PulseSat

PulseSat

INTELSAT 701 (IS-701)

Last updated on Dec. 16, 2018, 12:08 a.m. UTC

1 22871U 93066A   18348.83824613 -.00000259  00000-0  00000+0 0  9999
2 22871   5.2327  64.4508 0002740 234.2603 244.4596  0.99326294 91818
UTC
Height (km)
Latitude
Longitude
Inclination
Orbital Period

Next 30 passes for location: Hong Kong

Rise time Rise Azimuth (degrees) Set time Set Azimuth (degrees) Duration Max altitude (degrees)

No matching passes for this satellites

PulseSat

PulseSat is the new satellites software and hardware trackering solution by Pulsely.
Satellite Two Line Element Set source: US Air Force Space Command

Download PulseSat for iOS
© 2017 Pulsely Limited